Date String (YYYY-MM-DD hh:mm:ss) UTC,Instrument flags,Ambient pressure (hPa),Sample flow (lpm),Bypass flow (lpm),Sample temperature (°C),Ambient temperature (°C),ASC tube jacket temperature (°C),LED temperature (°C),Box temperature (°C),Sample RH (%),Span deviation,Mass concentration (μg/m³),Mass concentration (μg/m³),Mass concentration (μg/m³)
DateTimeUTC,F1_M11,P_M11,Q1_M11,Q2_M11,T1_M11,T2_M11,T3_M11,T4_M11,T5_M11,U1_M11,ZSPAN_M11,X0_M11,X2_M11,X1_M11
2021-12-23 02:00:00,,0820.5,4.99,0.00,27.7,26.9,00.0,36.7,29.4,05.5,0000.0,0002.33,0000.40,0000.25
2021-12-23 02:01:00,,0820.6,5.00,0.00,27.7,26.9,00.0,36.7,29.4,05.5,0000.0,0002.52,0000.42,0000.25
2021-12-23 02:02:00,,0820.6,4.99,0.00,27.7,26.9,00.0,36.7,29.5,05.5,0000.0,0001.65,0000.41,0000.25
2021-12-23 02:03:00,,0820.6,5.01,0.00,27.7,26.9,00.0,36.7,29.5,05.5,0000.0,0000.97,0000.42,0000.25
2021-12-23 02:04:00,,0820.5,4.99,0.00,27.7,26.9,00.0,36.7,29.5,05.5,0000.0,0001.68,0000.42,0000.24
2021-12-23 02:05:00,,0820.2,5.00,0.00,27.7,26.9,00.0,36.7,29.5,05.6,0000.0,0002.38,0000.42,0000.24
2021-12-23 02:06:00,,0820.3,4.99,0.00,27.7,26.9,00.0,36.7,29.5,05.6,0000.0,0002.37,0000.41,0000.23
2021-12-23 02:07:00,,0820.2,5.01,0.00,27.7,26.9,00.0,36.7,29.5,05.5,0000.0,0002.35,0000.40,0000.23
2021-12-23 02:08:00,,0820.3,4.99,0.00,27.7,26.9,00.0,36.7,29.4,05.6,0000.0,0002.34,0000.40,0000.23
2021-12-23 02:09:00,,0820.6,5.01,0.00,27.7,26.9,00.0,36.7,29.4,05.6,0000.0,0002.31,0000.38,0000.23
2021-12-23 02:10:00,,0820.5,5.00,0.00,27.7,26.9,00.0,36.7,29.4,05.5,0000.0,0002.28,0000.37,0000.22
2021-12-23 02:11:00,,0820.3,4.99,0.00,27.7,26.9,00.0,36.7,29.4,05.3,0000.0,0002.22,0000.35,0000.22
2021-12-23 02:12:00,,0820.6,5.00,0.00,27.7,26.9,00.0,36.7,29.4,05.2,0000.0,0002.01,0000.32,0000.22
2021-12-23 02:13:00,,0820.6,5.00,0.00,27.7,27.0,00.0,36.7,29.4,05.1,0000.0,0002.04,0000.32,0000.23
2021-12-23 02:14:00,,0820.7,5.01,0.00,27.7,27.0,00.0,36.7,29.4,05.1,0000.0,0001.94,0000.31,0000.23
2021-12-23 02:15:00,,0820.7,5.00,0.00,27.7,27.0,00.0,36.7,29.4,04.9,0000.0,0001.22,0000.31,0000.23
2021-12-23 02:16:00,,0820.6,4.99,0.00,27.7,27.0,00.0,36.7,29.4,04.9,0000.0,0000.52,0000.31,0000.24
2021-12-23 02:17:00,,0820.6,5.01,0.00,27.8,27.0,00.0,36.7,29.5,04.8,0000.0,0000.55,0000.33,0000.25
2021-12-23 02:18:00,,0820.6,4.99,0.00,27.8,27.0,00.0,36.7,29.5,04.8,0000.0,0000.57,0000.34,0000.26
2021-12-23 02:19:00,,0820.6,5.02,0.00,27.8,27.0,00.0,36.7,29.5,04.7,0000.0,0001.51,0000.35,0000.27
2021-12-23 02:20:00,,0820.6,5.01,0.00,27.8,27.0,00.0,36.7,29.5,04.7,0000.0,0001.93,0000.36,0000.28
2021-12-23 02:21:00,,0820.6,4.99,0.00,27.8,27.0,00.0,36.7,29.5,04.7,0000.0,0001.94,0000.37,0000.29
2021-12-23 02:22:00,,0820.6,5.01,0.00,27.8,27.0,00.0,36.7,29.5,04.7,0000.0,0001.94,0000.37,0000.30
2021-12-23 02:23:00,,0820.7,4.99,0.00,27.8,27.0,00.0,36.7,29.6,04.6,0000.0,0001.91,0000.37,0000.30
2021-12-23 02:24:00,,0820.6,4.99,0.00,27.8,27.0,00.0,36.7,29.6,04.6,0000.0,0002.11,0000.36,0000.31
2021-12-23 02:25:00,,0820.6,5.01,0.00,27.8,27.0,00.0,36.7,29.6,04.7,0000.0,0003.00,0000.37,0000.31
2021-12-23 02:26:00,,0820.6,5.00,0.00,27.8,27.0,00.0,36.7,29.6,04.8,0000.0,0003.01,0000.37,0000.32
2021-12-23 02:27:00,,0820.6,4.98,0.00,27.8,27.0,00.0,36.7,29.6,04.7,0000.0,0003.00,0000.37,0000.32
2021-12-23 02:28:00,,0820.6,5.01,0.00,27.8,27.0,00.0,36.7,29.6,04.7,0000.0,0002.99,0000.37,0000.33
2021-12-23 02:29:00,,0820.6,4.98,0.00,27.8,27.0,00.0,36.8,29.6,04.6,0000.0,0002.97,0000.36,0000.32
2021-12-23 02:30:00,,0820.5,5.01,0.00,27.8,27.0,00.0,36.8,29.6,04.6,0000.0,0001.98,0000.36,0000.32
2021-12-23 02:31:00,,0820.6,4.99,0.00,27.8,27.1,00.0,36.8,29.6,04.6,0000.0,0001.63,0000.36,0000.31
2021-12-23 02:32:00,,0820.6,5.01,0.00,27.9,27.1,00.0,36.8,29.6,04.6,0000.0,0001.62,0000.35,0000.31
2021-12-23 02:33:00,,0820.6,4.98,0.00,27.9,27.1,00.0,36.8,29.6,04.6,0000.0,0001.64,0000.36,0000.31
2021-12-23 02:34:00,,0820.6,5.02,0.00,27.8,27.0,00.0,36.8,29.6,04.6,0000.0,0001.65,0000.36,0000.31
2021-12-23 02:35:00,,0820.6,4.99,0.00,27.8,27.0,00.0,36.8,29.5,04.7,0000.0,0001.32,0000.35,0000.31
2021-12-23 02:36:00,,0820.4,5.01,0.00,27.8,27.0,00.0,36.8,29.5,04.8,0000.0,0000.44,0000.35,0000.31
2021-12-23 02:37:00,,0820.5,4.99,0.00,27.8,27.0,00.0,36.8,29.4,04.8,0000.0,0000.42,0000.34,0000.31
2021-12-23 02:38:00,,0820.4,5.00,0.00,27.8,26.9,00.0,36.8,29.5,04.8,0000.0,0000.41,0000.33,0000.31
2021-12-23 02:39:00,,0820.3,5.01,0.00,27.8,26.9,00.0,36.7,29.5,04.8,0000.0,0000.47,0000.35,0000.31
2021-12-23 02:40:00,,0820.5,5.00,0.00,27.8,26.9,00.0,36.7,29.5,04.7,0000.0,0000.47,0000.36,0000.31
2021-12-23 02:41:00,,0820.6,4.99,0.00,27.8,26.9,00.0,36.7,29.5,04.7,0000.0,0000.51,0000.38,0000.31
2021-12-23 02:42:00,,0820.5,5.01,0.00,27.8,26.9,00.0,36.7,29.5,04.7,0000.0,0000.51,0000.38,0000.32
2021-12-23 02:43:00,,0820.5,5.00,0.00,27.8,26.9,00.0,36.7,29.5,04.7,0000.0,0000.53,0000.39,0000.32
2021-12-23 02:44:00,,0820.6,4.99,0.00,27.8,26.9,00.0,36.7,29.5,04.7,0000.0,0000.52,0000.39,0000.32
2021-12-23 02:45:00,,0820.3,5.00,0.00,27.8,26.9,00.0,36.7,29.4,04.7,0000.0,0000.51,0000.38,0000.32
2021-12-23 02:46:00,,0820.1,5.00,0.00,27.7,26.9,00.0,36.7,29.4,04.7,0000.0,0000.51,0000.39,0000.32
2021-12-23 02:47:00,,0820.3,5.01,0.00,27.7,26.9,00.0,36.7,29.4,04.8,0000.0,0000.51,0000.38,0000.31
2021-12-23 02:48:00,,0820.5,4.99,0.00,27.7,26.9,00.0,36.7,29.4,04.6,0000.0,0000.51,0000.39,0000.31
2021-12-23 02:49:00,,0820.6,5.01,0.00,27.7,26.9,00.0,36.7,29.5,04.6,0000.0,0000.50,0000.38,0000.31
2021-12-23 02:50:00,,0820.6,4.99,0.00,27.7,26.9,00.0,36.7,29.5,04.6,0000.0,0000.45,0000.36,0000.31
2021-12-23 02:51:00,,0820.5,5.00,0.00,27.7,26.9,00.0,36.7,29.5,04.5,0000.0,0000.61,0000.39,0000.31
2021-12-23 02:52:00,,0820.5,5.01,0.00,27.7,26.9,00.0,36.7,29.5,04.5,0000.0,0000.61,0000.38,0000.31
2021-12-23 02:53:00,,0820.3,4.99,0.00,27.7,26.9,00.0,36.7,29.5,04.6,0000.0,0000.60,0000.38,0000.31
2021-12-23 02:54:00,,0820.0,5.01,0.00,27.7,26.9,00.0,36.7,29.5,04.6,0000.0,0000.59,0000.37,0000.30
2021-12-23 02:55:00,,0820.1,4.99,0.00,27.7,26.9,00.0,36.7,29.5,04.6,0000.0,0000.60,0000.38,0000.30
2021-12-23 02:56:00,,0820.2,5.01,0.00,27.7,26.9,00.0,36.7,29.4,04.6,0000.0,0000.61,0000.38,0000.30
2021-12-23 02:57:00,,0820.5,4.99,0.00,27.7,26.9,00.0,36.7,29.4,05.0,0000.0,0000.61,0000.38,0000.30
2021-12-23 02:58:00,,0820.3,5.01,0.00,27.7,26.9,00.0,36.7,29.4,04.7,0000.0,0001.08,0000.38,0000.31
2021-12-23 02:59:00,,0820.2,5.01,0.00,27.7,26.9,00.0,36.7,29.4,05.2,0000.0,0001.19,0000.38,0000.30
